sat.trackr.live / text

‹ back to catalog

HRC MONOBLOCK CAMERA

NORAD 66052 · 1998-067XR

DEBRIS UNKNOWN UNKNOWN

§ Identity

Operator
Country
CA
Launch date
1998-11-20
Launch site
TYMSC
Launch vehicle
Mass (kg)
RCS (m²)

Purposes: station

External: N2YO · Heavens-Above · Gunter

§ Orbital elements

Epoch: 2026-05-25T03:06:24.103296Z

Period
91.69 min
Inclination
51.6268°
Eccentricity
0.0003500
Mean motion
15.70522259 rev/d
Perigee alt
355.0 km
Apogee alt
359.8 km
Semi-major
6,735.5 km
B*
4.9666e-4
RAAN
37.3060°
Arg perigee
100.1879°
Mean anomaly
259.9513°
Rev number
3,437

§ Raw data

HRC MONOBLOCK CAMERA1 66052U 98067XR  26145.12944564  .00062224  00000+0  49666-3 0  99912 66052  51.6268  37.3060 0003500 100.1879 259.9513 15.70522259 34371

JSON: /api/v1/satellites/66052 · /tle

For live sub-satellite position, see the globe view (requires WebGL).

§ Visibility from observer

Set your observer location to see the next 7 days of passes ≥ 10°. The values pass through the URL so the page stays shareable.

No JS? Fill the form by hand. The geolocation button needs JavaScript.